Location: Ferris
(32.5340°N, 96.6656°W)
Time: 06:09:45
(UTC+00:00)

ISS - Pass Details

Date: 21 May 2026
Orbit: 413 x 422 km, 51.6° (Epoch: 8 June)

Event Time Altitude Azimuth Distance (km) Brightness Sun altitude
Rises 04:26:23 0° 326° (NW) 2,348 1.2 -30.3°
Reaches altitude 10° 04:28:46 10° 341° (NNW) 1,484 -0.1 -30.6°
Enters shadow 04:29:10 12° 346° (NNW) 1,356 -0.4 -30.6°
